GSTAR 4

导读

GSTAR 4是美国发射的人造卫星,于1990年11月20日8点发射升空,归属美国航天项目。作为一颗对地观测类卫星,它服役期间承担着空间对地监测、数据采集传输等任务,为美国获取地理、气象等领域遥感信息提供支撑,在地球科学研究、资源探测等领域发挥过作用,是美国九十年代航天布局中商业卫星体系的组成部分。

基本信息
目录编号:
20946
目录名称:
GSTAR 4
国际标识:
1990-100B
轨道中心:
EARTH
卫星名称:
GSTAR 4
卫星全名:
--
卫星状态:
在轨 (已飞行13082 天)
发射日期:
1990-11-20 UTC
国别 :
美国 (US)
星等 :
--
该卫星已列入 空间交会检测服务 Space Conjunction Data Service (SCDS) ,当前飞行风险评估等级: 无高风险
轨道信息
数据来源 国际轨道数据 AOE轨道数据
星历时间 2026-09-14T05:49:06+0800
9小时前
查看轨道信息
2026-09-13T00:00:00+0800
1天前
查看轨道信息
半长轴 42483.342km 42483.113km
偏心率 0.0005878 0.0005795
轨道倾角 14.337° 14.336°
近地点辐角 338.437° 340.120°
升交点赤经 9.426° 9.435°
平近点角 96.080° 10.927°
近地点 36080.233km 36080.357km
远地点 36130.177km 36129.595km
周期 1452.405分钟 1452.393分钟
每日圈数 0.991459 0.991467
详细信息
使用方式:
暂无
2D轨道图
3D轨道图
轨道高度分析图
轨道倾角分析图
轨道综合分析图
查看轨道综合分析图
与全量物体交会距离演化趋势 订阅飞行安全评估服务
与全量物体交会风险概率演化趋势 订阅飞行安全评估服务